Погода в Якуибе

Боливия     22°00′42″S   63°40′40″W
темп.,
°C
ветер,
м/с
пор.,
м/с
влажн.,
%
обл.,
%
осадки,
мм/ч
давл.,
гПа
погр.,
м
21 июня, пн
пн2123:00+7зсз1185100 0.0 101910
02:00+6сз1191100 0.0 101811
05:00+6зсз1191100 0.0 101712
08:00+8з1180100 0.0 101956
11:00+16вюв115195 0.0 1018738
14:00+18вюв3145100 0.0 10151192
17:00+14вюв2564100 0.0 1016141
20:00+9зсз1187100 0.0 102010
22 июня, вт
вт2223:00+8зсз1190100 0.0 102011
02:00+7зсз119493 0.0 101911
05:00+7сз1194100 0.0 101911
08:00+10ссз117996 0.0 101966
11:00+18всв345193 0.0 10161017
14:00+21всв4546100 0.0 10111443
17:00+17в36625 0.0 1011291
20:00+11с11932 0.0 101410
23 июня, ср
ср2323:00+10сз119598 0.0 101212
02:00+12зсз0089100 0.0 101010
05:00+11з1194100 0.0 100811
08:00+13с128867 0.0 100788
11:00+24всв3549100 0.0 1004716
14:00+29всв3436100 0.0 10001026
17:00+23св1158100 0.0 100112
20:00+18зсз1178100 0.0 100414
24 июня, чт
чт2423:00+15зсз118710 0.0 100611
02:00+13з229431 0.0 100818
05:00+12зюз25964 0.0 1011119
08:00+13зюз298362 0.0 1016368
11:00+20ююз48412 0.0 10161197
14:00+22ююв34350 0.0 10141405
17:00+19вюв22520 0.0 101323
20:00+13сз11680 0.0 101511
25 июня, пт
пт2523:00+12сз21720 0.0 101512
02:00+11сз11735 0.0 101311
05:00+11ссз227363 0.0 101136
08:00+12ссз1159100 0.0 101345
11:00+20всв253840 0.0 10111103
14:00+22всв453849 0.0 10061360
17:00+18в2155100 0.0 100619
20:00+14з2263100 0.0 100826